Home   Weather   Accra   Past weeks

Flag for Ghana Past Weather in Accra, Ghana — Yesterday and Last 2 Weeks

Now
77 °F

Thundershowers. Passing clouds.


Feels Like: 78 °F
Forecast: N/A
Wind: 3 mph from North

Location: Accra Airport

Current Time: Apr 25, 2017 at 8:50:05 pm

Latest Report: Apr 25, 2017 at 8:00 pm


Visibility: N/A

Pressure: 29.86 "Hg

Humidity: 83%

Dew Point: 72 °F

Location of AccraLocation

Past Weather in Accra — Graph

°F

Accra Temperature Yesterday

Maximum temperature yesterday: 91 °F (at 1:00 pm)
Minimum temperature yesterday: 79 °F (at 6:00 am)
Average temperature yesterday: 85 °F

High & Low Weather Summary for the Past Weeks

 TemperatureHumidityPressure
High91 °F (Apr 12, 12:00 pm)100% (Apr 14, 11:00 am)29.92 "Hg (Apr 14, 11:00 am)
Low73 °F (Apr 25, 7:00 pm)63% (Apr 17, 12:00 pm)29.71 "Hg (Apr 12, 4:00 pm)
Average83 °F83%29.82 "Hg
* Reported Apr 10 7:00 pm — Apr 25 7:00 pm, Accra, Weather by CustomWeather, © 2017

Note: Actual official high and low records may vary slightly from our data, if they occured in-between our weather recording intervals... More about our weather records

Advertising

Accra Weather History for the Previous 24 Hours

Scroll right to see more
 ConditionsComfort  
Time TempWeatherWind HumidityBarometerVisibility
7:00 pm
Tue, Apr 25
73 °FThunderstorms. Passing clouds.2 mph94%29.86 "HgN/A
6:00 pm75 °FThunderstorms. Partly sunny.23 mph89%29.83 "Hg2 mi
5:00 pm84 °FThundershowers. Scattered clouds.10 mph84%29.77 "HgN/A
4:00 pm84 °FThundershowers. Partly sunny.12 mph84%29.80 "HgN/A
3:00 pm86 °FThundershowers. Passing clouds.12 mph79%29.80 "HgN/A
2:00 pm88 °FThundershowers. Passing clouds.14 mph70%29.80 "HgN/A
1:00 pm88 °FPassing clouds.15 mph75%29.83 "HgN/A
12:00 pm90 °FPassing clouds.15 mph67%29.86 "HgN/A
11:00 am88 °FPassing clouds.12 mph75%29.89 "HgN/A
10:00 am86 °FPartly sunny.9 mph79%29.89 "HgN/A
9:00 am84 °FPassing clouds.8 mph84%29.89 "Hg5 mi
8:00 am82 °FSunny.10 mph89%29.89 "Hg10 mi
7:00 am81 °FScattered clouds.8 mph94%29.86 "HgN/A
6:00 am81 °FScattered clouds.8 mph94%29.83 "HgN/A
5:00 am81 °FPassing clouds.8 mph94%29.83 "HgN/A
4:00 am81 °FClear.7 mph94%29.80 "Hg10 mi
3:00 am82 °FPassing clouds.9 mph89%29.83 "HgN/A
1:00 am82 °FPassing clouds.9 mph89%29.86 "HgN/A
12:00 am84 °FPassing clouds.9 mph89%29.89 "HgN/A
11:00 pm
Mon, Apr 24
84 °FPassing clouds.10 mph84%29.92 "HgN/A
10:00 pm84 °FPassing clouds.12 mph84%29.89 "HgN/A
9:00 pm84 °FPassing clouds.10 mph84%29.86 "HgN/A
8:00 pm84 °FPassing clouds.10 mph84%29.86 "HgN/A
Weather by CustomWeather, © 2017

See weather overviewHow to use our weather pages